Time,TemperatureF,DewpointF,PressureIn,WindDirection,WindDirectionDegrees,WindSpeedMPH,WindSpeedGustMPH,Humidity,HourlyPrecipIn,Conditions,Clouds,dailyrainin,SoftwareType,DateUTC
2013-06-12 00:02:00,63.0,58.7,29.38,West,270,1.3,802.0,86,0.00,,BKN014,0.00,VWS V14.01,2013-06-12 07:02:00,
2013-06-12 00:07:00,63.0,58.7,29.38,West,270,1.3,802.0,86,0.00,,BKN014,0.00,VWS V14.01,2013-06-12 07:07:00,
2013-06-12 00:12:00,62.8,58.5,29.38,West,270,1.3,802.0,86,0.00,,BKN014,0.00,VWS V14.01,2013-06-12 07:12:00,
2013-06-12 00:17:00,62.8,58.5,29.38,West,270,1.3,802.0,86,0.00,,BKN014,0.00,VWS V14.01,2013-06-12 07:17:00,
2013-06-12 00:22:00,62.8,58.5,29.38,West,270,1.3,802.0,86,0.00,,BKN014,0.00,VWS V14.01,2013-06-12 07:22:00,
2013-06-12 00:27:00,62.8,58.5,29.38,West,270,1.3,802.0,86,0.00,,BKN014,0.00,VWS V14.01,2013-06-12 07:27:00,
2013-06-12 00:32:00,62.8,58.5,29.38,West,270,1.3,802.0,86,0.00,,BKN014,0.00,VWS V14.01,2013-06-12 07:32:00,
2013-06-12 00:37:00,62.8,58.5,29.38,West,270,1.3,802.0,86,0.00,,BKN014,0.00,VWS V14.01,2013-06-12 07:37:00,
2013-06-12 00:42:00,62.8,58.9,29.38,West,270,1.3,802.0,87,0.00,,BKN014,0.00,VWS V14.01,2013-06-12 07:42:00,
2013-06-12 00:47:00,62.8,58.9,29.38,West,270,1.3,802.0,87,0.00,,BKN014,0.00,VWS V14.01,2013-06-12 07:47:00,
2013-06-12 00:52:00,62.8,58.9,29.38,West,270,1.3,802.0,87,0.00,,BKN014,0.00,VWS V14.01,2013-06-12 07:52:00,
2013-06-12 00:57:00,62.8,58.9,29.38,West,270,1.3,802.0,87,0.00,,BKN014,0.00,VWS V14.01,2013-06-12 07:57:00,
2013-06-12 01:02:00,63.0,58.7,29.38,West,270,1.3,802.0,86,0.00,,OVC012,0.00,VWS V14.01,2013-06-12 08:02:00,
2013-06-12 01:07:00,63.0,58.7,29.38,West,270,1.3,802.0,86,0.00,,OVC012,0.00,VWS V14.01,2013-06-12 08:07:00,
2013-06-12 01:12:00,63.0,59.0,29.38,West,270,1.3,802.0,87,0.00,,OVC012,0.00,VWS V14.01,2013-06-12 08:12:00,
2013-06-12 01:17:00,63.0,59.0,29.38,West,270,1.3,802.0,87,0.00,,OVC012,0.00,VWS V14.01,2013-06-12 08:17:00,
2013-06-12 01:22:00,63.0,59.0,29.38,West,270,1.3,802.0,87,0.00,,OVC012,0.00,VWS V14.01,2013-06-12 08:22:00,
2013-06-12 01:27:00,63.0,58.7,29.38,West,270,1.3,802.0,86,0.00,,OVC012,0.00,VWS V14.01,2013-06-12 08:27:00,
2013-06-12 01:32:00,63.0,59.0,29.38,West,270,1.3,802.0,87,0.00,,OVC012,0.00,VWS V14.01,2013-06-12 08:32:00,
2013-06-12 01:37:00,63.0,59.0,29.38,West,270,1.3,802.0,87,0.00,,OVC012,0.00,VWS V14.01,2013-06-12 08:37:00,
2013-06-12 01:42:00,63.0,59.4,29.38,West,270,1.3,802.0,88,0.00,,OVC012,0.00,VWS V14.01,2013-06-12 08:42:00,
2013-06-12 01:47:00,63.0,59.0,29.38,West,270,1.3,802.0,87,0.00,,OVC012,0.00,VWS V14.01,2013-06-12 08:47:00,
2013-06-12 01:52:00,63.0,59.0,29.38,West,270,1.3,802.0,87,0.00,,OVC012,0.00,VWS V14.01,2013-06-12 08:52:00,
2013-06-12 01:57:00,63.0,59.0,29.38,West,270,1.3,802.0,87,0.00,,OVC012,0.00,VWS V14.01,2013-06-12 08:57:00,
2013-06-12 02:02:00,62.8,59.2,29.38,West,270,1.3,802.0,88,0.00,,OVC012,0.00,VWS V14.01,2013-06-12 09:02:00,
2013-06-12 02:07:00,62.6,58.7,29.38,West,270,1.3,802.0,87,0.00,,OVC012,0.00,VWS V14.01,2013-06-12 09:07:00,
2013-06-12 02:12:00,62.8,58.9,29.38,West,270,1.3,802.0,87,0.00,,OVC012,0.00,VWS V14.01,2013-06-12 09:12:00,
2013-06-12 02:17:00,62.8,58.9,29.38,West,270,1.3,802.0,87,0.00,,OVC012,0.00,VWS V14.01,2013-06-12 09:17:00,
2013-06-12 02:22:00,62.8,59.2,29.38,West,270,1.3,802.0,88,0.00,,OVC012,0.00,VWS V14.01,2013-06-12 09:22:00,
2013-06-12 02:27:00,62.8,59.2,29.38,West,270,1.3,802.0,88,0.00,,OVC012,0.00,VWS V14.01,2013-06-12 09:27:00,
2013-06-12 02:32:00,62.8,58.9,29.38,West,270,1.3,802.0,87,0.00,,OVC012,0.00,VWS V14.01,2013-06-12 09:32:00,
2013-06-12 02:37:00,62.8,59.2,29.38,West,270,1.3,802.0,88,0.00,,OVC012,0.00,VWS V14.01,2013-06-12 09:37:00,
2013-06-12 02:42:00,62.8,59.2,29.38,West,270,1.3,802.0,88,0.00,,OVC012,0.00,VWS V14.01,2013-06-12 09:42:00,
2013-06-12 02:47:00,62.8,59.2,29.38,West,270,1.3,802.0,88,0.00,,OVC012,0.00,VWS V14.01,2013-06-12 09:47:00,
2013-06-12 02:52:00,62.8,59.2,29.38,West,270,1.3,802.0,88,0.00,,OVC012,0.00,VWS V14.01,2013-06-12 09:52:00,
2013-06-12 02:57:00,62.6,59.0,29.38,West,270,1.3,802.0,88,0.00,,OVC012,0.00,VWS V14.01,2013-06-12 09:57:00,
2013-06-12 03:02:00,62.6,59.0,29.38,West,270,1.3,802.0,88,0.00,,OVC012,0.00,VWS V14.01,2013-06-12 10:02:00,
2013-06-12 03:07:00,62.6,59.0,29.38,West,270,1.3,802.0,88,0.00,,OVC012,0.00,VWS V14.01,2013-06-12 10:07:00,
2013-06-12 03:12:00,62.6,59.0,29.38,West,270,1.3,802.0,88,0.00,,OVC012,0.00,VWS V14.01,2013-06-12 10:12:00,
2013-06-12 03:17:00,62.8,59.2,29.38,West,270,1.3,802.0,88,0.00,,OVC012,0.00,VWS V14.01,2013-06-12 10:17:00,
2013-06-12 03:22:00,62.6,59.0,29.38,West,270,1.3,802.0,88,0.00,,OVC012,0.00,VWS V14.01,2013-06-12 10:22:00,
2013-06-12 03:27:00,62.6,59.0,29.38,West,270,1.3,802.0,88,0.00,,OVC012,0.00,VWS V14.01,2013-06-12 10:27:00,
2013-06-12 03:32:00,62.6,59.0,29.38,West,270,1.3,802.0,88,0.00,,OVC012,0.00,VWS V14.01,2013-06-12 10:32:00,
2013-06-12 03:37:00,62.6,59.0,29.38,West,270,1.3,802.0,88,0.00,,OVC012,0.00,VWS V14.01,2013-06-12 10:37:00,
2013-06-12 03:42:00,62.6,59.0,29.38,West,270,1.3,802.0,88,0.00,,OVC012,0.00,VWS V14.01,2013-06-12 10:42:00,
2013-06-12 03:47:00,62.6,59.3,29.38,West,270,1.3,802.0,89,0.00,,OVC012,0.00,VWS V14.01,2013-06-12 10:47:00,
2013-06-12 03:52:00,62.6,59.3,29.38,West,270,1.3,802.0,89,0.00,,OVC012,0.00,VWS V14.01,2013-06-12 10:52:00,
2013-06-12 03:57:00,62.6,59.3,29.38,West,270,1.3,802.0,89,0.00,,OVC012,0.00,VWS V14.01,2013-06-12 10:57:00,
2013-06-12 04:02:00,62.6,59.3,29.38,West,270,1.3,802.0,89,0.00,,OVC012,0.00,VWS V14.01,2013-06-12 11:02:00,
2013-06-12 04:07:00,62.6,59.3,29.38,West,270,1.3,802.0,89,0.00,,OVC012,0.00,VWS V14.01,2013-06-12 11:07:00,
2013-06-12 04:12:00,62.6,59.3,29.38,West,270,1.3,802.0,89,0.00,,OVC012,0.00,VWS V14.01,2013-06-12 11:12:00,
2013-06-12 04:17:00,62.4,59.1,29.38,West,270,1.3,802.0,89,0.00,,OVC012,0.00,VWS V14.01,2013-06-12 11:17:00,
2013-06-12 04:22:00,62.4,59.1,29.38,West,270,1.3,802.0,89,0.00,,OVC012,0.00,VWS V14.01,2013-06-12 11:22:00,
2013-06-12 04:27:00,62.2,59.3,29.38,West,270,1.3,802.0,90,0.00,,OVC012,0.00,VWS V14.01,2013-06-12 11:27:00,
2013-06-12 04:32:00,62.2,59.3,29.38,West,270,1.3,802.0,90,0.00,,OVC012,0.00,VWS V14.01,2013-06-12 11:32:00,
2013-06-12 04:37:00,62.2,59.3,29.38,West,270,1.3,802.0,90,0.00,,OVC012,0.00,VWS V14.01,2013-06-12 11:37:00,
2013-06-12 04:42:00,62.2,59.3,29.38,West,270,1.3,802.0,90,0.00,,OVC012,0.00,VWS V14.01,2013-06-12 11:42:00,
2013-06-12 04:47:00,62.2,59.3,29.38,West,270,1.3,802.0,90,0.00,,OVC012,0.00,VWS V14.01,2013-06-12 11:47:00,
2013-06-12 04:52:00,62.1,59.4,29.38,West,270,1.3,802.0,91,0.00,,OVC012,0.00,VWS V14.01,2013-06-12 11:52:00,
2013-06-12 04:57:00,62.2,59.6,29.38,West,270,1.3,802.0,91,0.00,,OVC012,0.00,VWS V14.01,2013-06-12 11:57:00,
2013-06-12 05:02:00,62.1,59.4,29.38,West,270,1.3,802.0,91,0.00,,OVC012,0.00,VWS V14.01,2013-06-12 12:02:00,
2013-06-12 05:07:00,62.1,59.4,29.38,West,270,1.3,802.0,91,0.00,,OVC012,0.00,VWS V14.01,2013-06-12 12:07:00,
2013-06-12 05:12:00,62.1,59.4,29.38,West,270,1.3,802.0,91,0.00,,OVC012,0.00,VWS V14.01,2013-06-12 12:12:00,
2013-06-12 05:17:00,62.1,59.4,29.38,West,270,1.3,802.0,91,0.00,,OVC012,0.00,VWS V14.01,2013-06-12 12:17:00,
2013-06-12 05:22:00,62.1,59.4,29.38,West,270,1.3,802.0,91,0.00,,OVC012,0.00,VWS V14.01,2013-06-12 12:22:00,
2013-06-12 05:27:00,61.9,59.2,29.38,West,270,1.3,802.0,91,0.00,,OVC012,0.00,VWS V14.01,2013-06-12 12:27:00,
2013-06-12 05:32:00,61.9,59.2,29.35,West,270,1.3,802.0,91,0.00,,OVC012,0.00,VWS V14.01,2013-06-12 12:32:00,
2013-06-12 05:37:00,61.7,59.0,29.35,West,270,1.3,802.0,91,0.00,,OVC012,0.00,VWS V14.01,2013-06-12 12:37:00,
2013-06-12 05:42:00,61.7,59.0,29.35,West,270,1.3,802.0,91,0.00,,OVC012,0.00,VWS V14.01,2013-06-12 12:42:00,
2013-06-12 05:47:00,61.9,59.2,29.38,West,270,1.3,802.0,91,0.00,,OVC012,0.00,VWS V14.01,2013-06-12 12:47:00,
2013-06-12 05:52:00,61.7,59.0,29.38,West,270,1.3,802.0,91,0.00,,OVC012,0.00,VWS V14.01,2013-06-12 12:52:00,
2013-06-12 05:57:00,61.7,59.0,29.38,West,270,1.3,802.0,91,0.00,,OVC012,0.00,VWS V14.01,2013-06-12 12:57:00,
2013-06-12 06:02:00,61.7,59.0,29.38,West,270,1.3,802.0,91,0.00,,OVC012,0.00,VWS V14.01,2013-06-12 13:02:00,
2013-06-12 06:07:00,61.7,59.4,29.38,West,270,1.3,802.0,92,0.00,,OVC012,0.00,VWS V14.01,2013-06-12 13:07:00,
2013-06-12 06:12:00,61.7,59.0,29.38,West,270,1.3,802.0,91,0.00,,OVC012,0.00,VWS V14.01,2013-06-12 13:12:00,
2013-06-12 06:17:00,61.7,59.0,29.38,West,270,1.3,802.0,91,0.00,,OVC012,0.00,VWS V14.01,2013-06-12 13:17:00,
2013-06-12 06:22:00,61.7,59.4,29.38,West,270,1.3,802.0,92,0.00,,OVC012,0.00,VWS V14.01,2013-06-12 13:22:00,
2013-06-12 06:27:00,61.7,59.4,29.38,West,270,1.3,802.0,92,0.00,,OVC012,0.00,VWS V14.01,2013-06-12 13:27:00,
2013-06-12 06:32:00,61.7,59.0,29.38,West,270,1.3,802.0,91,0.00,,OVC012,0.00,VWS V14.01,2013-06-12 13:32:00,
2013-06-12 06:37:00,61.7,59.4,29.38,West,270,1.3,802.0,92,0.00,,OVC012,0.00,VWS V14.01,2013-06-12 13:37:00,
2013-06-12 06:42:00,61.7,59.4,29.38,West,270,1.3,802.0,92,0.00,,OVC012,0.00,VWS V14.01,2013-06-12 13:42:00,
2013-06-12 06:47:00,61.7,59.4,29.38,West,270,1.3,802.0,92,0.00,,OVC012,0.00,VWS V14.01,2013-06-12 13:47:00,
2013-06-12 06:52:00,61.5,59.2,29.38,West,270,1.3,802.0,92,0.00,,OVC012,0.00,VWS V14.01,2013-06-12 13:52:00,
2013-06-12 06:57:00,61.5,59.2,29.38,West,270,1.3,802.0,92,0.00,,OVC012,0.00,VWS V14.01,2013-06-12 13:57:00,
2013-06-12 07:02:00,61.7,59.4,29.38,West,270,1.3,802.0,92,0.00,,OVC010,0.00,VWS V14.01,2013-06-12 14:02:00,
2013-06-12 07:07:00,61.7,59.4,29.38,West,270,1.3,802.0,92,0.00,,OVC010,0.00,VWS V14.01,2013-06-12 14:07:00,
2013-06-12 07:12:00,61.7,59.4,29.38,West,270,1.3,802.0,92,0.00,,OVC010,0.00,VWS V14.01,2013-06-12 14:12:00,
2013-06-12 07:17:00,61.9,59.5,29.41,West,270,1.3,802.0,92,0.00,,OVC010,0.00,VWS V14.01,2013-06-12 14:17:00,
2013-06-12 07:22:00,62.1,59.7,29.41,West,270,1.3,802.0,92,0.00,,OVC010,0.00,VWS V14.01,2013-06-12 14:22:00,
2013-06-12 07:27:00,62.1,59.7,29.41,West,270,1.3,802.0,92,0.00,,OVC010,0.00,VWS V14.01,2013-06-12 14:27:00,
2013-06-12 07:32:00,62.2,59.9,29.41,West,270,1.3,802.0,92,0.00,,OVC010,0.00,VWS V14.01,2013-06-12 14:32:00,
2013-06-12 07:37:00,62.2,59.6,29.41,West,270,1.3,802.0,91,0.00,,OVC010,0.00,VWS V14.01,2013-06-12 14:37:00,
2013-06-12 07:42:00,62.4,59.8,29.41,West,270,1.3,802.0,91,0.00,,OVC010,0.00,VWS V14.01,2013-06-12 14:42:00,
2013-06-12 07:47:00,62.6,59.6,29.41,West,270,1.3,802.0,90,0.00,,OVC010,0.00,VWS V14.01,2013-06-12 14:47:00,
2013-06-12 07:52:00,63.0,60.3,29.41,West,270,1.3,802.0,91,0.00,,OVC010,0.00,VWS V14.01,2013-06-12 14:52:00,
2013-06-12 07:57:00,63.1,60.5,29.41,West,270,1.3,802.0,91,0.00,,OVC010,0.00,VWS V14.01,2013-06-12 14:57:00,
2013-06-12 08:02:00,63.3,60.0,29.41,West,270,1.3,802.0,89,0.00,,OVC010,0.00,VWS V14.01,2013-06-12 15:02:00,
2013-06-12 08:07:00,63.3,60.0,29.41,West,270,1.3,802.0,89,0.00,,OVC010,0.00,VWS V14.01,2013-06-12 15:07:00,
2013-06-12 08:12:00,63.3,59.7,29.41,West,270,1.3,802.0,88,0.00,,OVC010,0.00,VWS V14.01,2013-06-12 15:12:00,
2013-06-12 08:17:00,63.5,59.9,29.41,West,270,1.3,802.0,88,0.00,,OVC010,0.00,VWS V14.01,2013-06-12 15:17:00,
2013-06-12 08:22:00,63.5,59.9,29.41,West,270,1.3,802.0,88,0.00,,OVC010,0.00,VWS V14.01,2013-06-12 15:22:00,
2013-06-12 08:27:00,63.5,59.6,29.41,West,270,1.3,802.0,87,0.00,,OVC010,0.00,VWS V14.01,2013-06-12 15:27:00,
2013-06-12 08:32:00,63.5,59.2,29.44,West,270,1.3,802.0,86,0.00,,OVC010,0.00,VWS V14.01,2013-06-12 15:32:00,
2013-06-12 08:37:00,63.5,59.2,29.44,West,270,1.3,802.0,86,0.00,,OVC010,0.00,VWS V14.01,2013-06-12 15:37:00,
2013-06-12 08:42:00,63.5,58.9,29.44,West,270,1.3,802.0,85,0.00,,OVC010,0.00,VWS V14.01,2013-06-12 15:42:00,
2013-06-12 08:47:00,63.7,59.1,29.44,West,270,1.3,802.0,85,0.00,,OVC010,0.00,VWS V14.01,2013-06-12 15:47:00,
2013-06-12 08:52:00,63.7,59.1,29.44,West,270,1.3,802.0,85,0.00,,OVC010,0.00,VWS V14.01,2013-06-12 15:52:00,
2013-06-12 08:57:00,63.9,59.3,29.44,West,270,1.3,802.0,85,0.00,,OVC010,0.00,VWS V14.01,2013-06-12 15:57:00,
2013-06-12 09:02:00,64.2,59.3,29.44,West,270,1.3,802.0,84,0.00,,OVC010,0.00,VWS V14.01,2013-06-12 16:02:00,
2013-06-12 09:07:00,64.2,59.3,29.44,West,270,1.3,802.0,84,0.00,,OVC010,0.00,VWS V14.01,2013-06-12 16:07:00,
2013-06-12 09:12:00,64.2,59.0,29.44,West,270,1.3,802.0,83,0.00,,OVC010,0.00,VWS V14.01,2013-06-12 16:12:00,
2013-06-12 09:17:00,64.2,59.0,29.44,West,270,1.3,802.0,83,0.00,,OVC010,0.00,VWS V14.01,2013-06-12 16:17:00,
2013-06-12 09:22:00,64.4,59.1,29.44,West,270,1.3,802.0,83,0.00,,OVC010,0.00,VWS V14.01,2013-06-12 16:22:00,
2013-06-12 09:27:00,64.4,58.8,29.44,West,270,1.3,802.0,82,0.00,,OVC010,0.00,VWS V14.01,2013-06-12 16:27:00,
2013-06-12 09:32:00,64.2,58.6,29.44,West,270,1.3,802.0,82,0.00,,OVC010,0.00,VWS V14.01,2013-06-12 16:32:00,
2013-06-12 09:37:00,64.4,58.8,29.44,West,270,1.3,802.0,82,0.00,,OVC010,0.00,VWS V14.01,2013-06-12 16:37:00,
2013-06-12 09:42:00,64.6,59.0,29.44,West,270,1.3,802.0,82,0.00,,OVC010,0.00,VWS V14.01,2013-06-12 16:42:00,
2013-06-12 09:47:00,64.6,58.3,29.44,West,270,1.3,802.0,80,0.00,,OVC010,0.00,VWS V14.01,2013-06-12 16:47:00,
2013-06-12 09:52:00,64.8,58.5,29.44,West,270,1.3,802.0,80,0.00,,OVC010,0.00,VWS V14.01,2013-06-12 16:52:00,
2013-06-12 09:57:00,64.8,58.5,29.44,West,270,1.3,802.0,80,0.00,,OVC010,0.00,VWS V14.01,2013-06-12 16:57:00,
2013-06-12 10:02:00,64.9,58.6,29.44,West,270,1.3,802.0,80,0.00,,OVC012,0.00,VWS V14.01,2013-06-12 17:02:00,
2013-06-12 10:07:00,64.8,58.5,29.44,West,270,1.3,802.0,80,0.00,,OVC012,0.00,VWS V14.01,2013-06-12 17:07:00,
2013-06-12 10:12:00,65.1,58.8,29.44,West,270,1.3,802.0,80,0.00,,OVC012,0.00,VWS V14.01,2013-06-12 17:12:00,
2013-06-12 10:17:00,65.3,59.0,29.44,West,270,1.3,802.0,80,0.00,,OVC012,0.00,VWS V14.01,2013-06-12 17:17:00,
2013-06-12 10:22:00,65.3,59.0,29.44,West,270,1.3,802.0,80,0.00,,OVC012,0.00,VWS V14.01,2013-06-12 17:22:00,
2013-06-12 10:27:00,65.7,59.3,29.44,West,270,1.3,802.0,80,0.00,,OVC012,0.00,VWS V14.01,2013-06-12 17:27:00,
2013-06-12 10:32:00,65.8,59.2,29.44,West,270,1.3,802.0,79,0.00,,OVC012,0.00,VWS V14.01,2013-06-12 17:32:00,
2013-06-12 10:37:00,65.5,58.8,29.44,West,270,1.3,802.0,79,0.00,,OVC012,0.00,VWS V14.01,2013-06-12 17:37:00,
2013-06-12 10:42:00,65.5,58.8,29.44,West,270,1.3,802.0,79,0.00,,OVC012,0.00,VWS V14.01,2013-06-12 17:42:00,
2013-06-12 10:47:00,65.7,58.6,29.44,West,270,1.3,802.0,78,0.00,,OVC012,0.00,VWS V14.01,2013-06-12 17:47:00,
2013-06-12 10:52:00,65.8,58.8,29.44,West,270,1.3,802.0,78,0.00,,OVC012,0.00,VWS V14.01,2013-06-12 17:52:00,
2013-06-12 10:57:00,65.7,58.6,29.44,West,270,1.3,802.0,78,0.00,,OVC012,0.00,VWS V14.01,2013-06-12 17:57:00,
2013-06-12 11:02:00,65.7,59.0,29.47,West,270,1.3,802.0,79,0.00,,OVC012,0.00,VWS V14.01,2013-06-12 18:02:00,
2013-06-12 11:07:00,66.0,59.3,29.47,West,270,1.3,802.0,79,0.00,,OVC012,0.00,VWS V14.01,2013-06-12 18:07:00,
2013-06-12 11:12:00,66.6,59.1,29.47,West,270,1.3,802.0,77,0.00,,OVC012,0.00,VWS V14.01,2013-06-12 18:12:00,
2013-06-12 11:17:00,66.7,59.3,29.47,West,270,1.3,802.0,77,0.00,,OVC012,0.00,VWS V14.01,2013-06-12 18:17:00,
2013-06-12 11:22:00,67.1,59.7,29.47,West,270,1.3,802.0,77,0.00,,OVC012,0.00,VWS V14.01,2013-06-12 18:22:00,
2013-06-12 11:27:00,67.5,59.6,29.47,West,270,1.3,802.0,76,0.00,,OVC012,0.00,VWS V14.01,2013-06-12 18:27:00,
2013-06-12 11:32:00,68.0,59.8,29.47,West,270,1.3,802.0,75,0.00,,OVC012,0.00,VWS V14.01,2013-06-12 18:32:00,
2013-06-12 11:37:00,68.4,59.8,29.47,West,270,1.3,802.0,74,0.00,,OVC012,0.00,VWS V14.01,2013-06-12 18:37:00,
2013-06-12 11:42:00,68.7,59.7,29.47,West,270,1.3,802.0,73,0.00,,OVC012,0.00,VWS V14.01,2013-06-12 18:42:00,
2013-06-12 11:47:00,69.1,60.1,29.47,West,270,1.3,802.0,73,0.00,,OVC012,0.00,VWS V14.01,2013-06-12 18:47:00,
2013-06-12 11:52:00,69.1,59.3,29.47,West,270,1.3,802.0,71,0.00,,OVC012,0.00,VWS V14.01,2013-06-12 18:52:00,
2013-06-12 11:57:00,68.9,58.7,29.47,West,270,1.3,802.0,70,0.00,,OVC012,0.00,VWS V14.01,2013-06-12 18:57:00,
2013-06-12 12:02:00,69.1,59.3,29.47,West,270,1.3,802.0,71,0.00,,OVC014,0.00,VWS V14.01,2013-06-12 19:02:00,
2013-06-12 12:07:00,68.7,58.5,29.47,West,270,1.3,802.0,70,0.00,,OVC014,0.00,VWS V14.01,2013-06-12 19:07:00,
2013-06-12 12:12:00,68.9,58.7,29.47,West,270,1.3,802.0,70,0.00,,OVC014,0.00,VWS V14.01,2013-06-12 19:12:00,
2013-06-12 12:17:00,68.7,58.5,29.47,West,270,1.3,802.0,70,0.00,,OVC014,0.00,VWS V14.01,2013-06-12 19:17:00,
2013-06-12 12:23:00,68.7,58.5,29.47,West,270,1.3,802.0,70,0.00,,OVC014,0.00,VWS V14.01,2013-06-12 19:23:00,
2013-06-12 12:28:00,68.9,58.7,29.47,West,270,1.3,802.0,70,0.00,,OVC014,0.00,VWS V14.01,2013-06-12 19:28:00,
2013-06-12 12:33:00,69.1,58.9,29.44,West,270,1.3,802.0,70,0.00,,OVC016,0.00,VWS V14.01,2013-06-12 19:33:00,
2013-06-12 12:38:00,69.6,59.4,29.44,West,270,1.3,802.0,70,0.00,,OVC016,0.00,VWS V14.01,2013-06-12 19:38:00,
2013-06-12 12:43:00,69.4,58.8,29.44,West,270,1.3,802.0,69,0.00,,OVC016,0.00,VWS V14.01,2013-06-12 19:43:00,
2013-06-12 12:48:00,69.4,58.8,29.44,West,270,1.3,802.0,69,0.00,,OVC016,0.00,VWS V14.01,2013-06-12 19:48:00,
2013-06-12 12:53:00,69.6,58.6,29.44,West,270,1.3,802.0,68,0.00,,OVC016,0.00,VWS V14.01,2013-06-12 19:53:00,
2013-06-12 12:58:00,69.6,58.6,29.44,West,270,1.3,802.0,68,0.00,,OVC016,0.00,VWS V14.01,2013-06-12 19:58:00,
2013-06-12 13:03:00,69.8,58.8,29.44,West,270,1.3,802.0,68,0.00,,OVC016,0.00,VWS V14.01,2013-06-12 20:03:00,
2013-06-12 13:08:00,70.5,59.0,29.44,West,270,1.3,802.0,67,0.00,,OVC016,0.00,VWS V14.01,2013-06-12 20:08:00,
2013-06-12 13:13:00,70.9,59.0,29.44,West,270,1.3,802.0,66,0.00,,OVC016,0.00,VWS V14.01,2013-06-12 20:13:00,
2013-06-12 13:18:00,71.8,59.0,29.44,West,270,1.3,802.0,64,0.00,,OVC016,0.00,VWS V14.01,2013-06-12 20:18:00,
2013-06-12 13:23:00,72.7,59.4,29.44,West,270,1.3,802.0,63,0.00,,OVC016,0.00,VWS V14.01,2013-06-12 20:23:00,
2013-06-12 13:28:00,73.8,59.5,29.44,West,270,1.3,802.0,61,0.00,,OVC016,0.00,VWS V14.01,2013-06-12 20:28:00,
2013-06-12 13:33:00,74.5,58.3,29.44,West,270,1.3,802.0,57,0.00,,OVC016,0.00,VWS V14.01,2013-06-12 20:33:00,
2013-06-12 13:38:00,74.8,58.1,29.44,West,270,1.3,802.0,56,0.00,,OVC016,0.00,VWS V14.01,2013-06-12 20:38:00,
2013-06-12 13:43:00,75.4,58.6,29.44,West,270,1.3,802.0,56,0.00,,OVC016,0.00,VWS V14.01,2013-06-12 20:43:00,
2013-06-12 13:48:00,76.1,58.3,29.44,West,270,1.3,802.0,54,0.00,,OVC016,0.00,VWS V14.01,2013-06-12 20:48:00,
2013-06-12 13:53:00,79.0,59.9,29.44,West,270,1.3,802.0,52,0.00,,OVC016,0.00,VWS V14.01,2013-06-12 20:53:00,
2013-06-12 13:58:00,78.4,57.7,29.44,West,270,1.3,802.0,49,0.00,,OVC016,0.00,VWS V14.01,2013-06-12 20:58:00,
2013-06-12 14:03:00,79.2,57.8,29.44,West,270,1.3,802.0,48,0.00,,BKN016,0.00,VWS V14.01,2013-06-12 21:03:00,
2013-06-12 14:08:00,80.2,58.2,29.44,West,270,1.3,802.0,47,0.00,,BKN016,0.00,VWS V14.01,2013-06-12 21:08:00,
2013-06-12 14:13:00,79.7,55.9,29.44,West,270,1.3,802.0,44,0.00,,BKN016,0.00,VWS V14.01,2013-06-12 21:13:00,
2013-06-12 14:18:00,81.7,58.3,29.44,West,270,1.3,802.0,45,0.00,,BKN016,0.00,VWS V14.01,2013-06-12 21:18:00,
2013-06-12 14:23:00,82.8,57.3,29.44,West,270,1.3,802.0,42,0.00,,BKN016,0.00,VWS V14.01,2013-06-12 21:23:00,
2013-06-12 14:28:00,83.1,57.7,29.44,West,270,1.3,802.0,42,0.00,,BKN016,0.00,VWS V14.01,2013-06-12 21:28:00,
2013-06-12 14:33:00,83.7,57.5,29.44,West,270,1.3,802.0,41,0.00,,BKN016,0.00,VWS V14.01,2013-06-12 21:33:00,
2013-06-12 14:38:00,84.6,56.9,29.44,West,270,1.3,802.0,39,0.00,,BKN016,0.00,VWS V14.01,2013-06-12 21:38:00,
2013-06-12 14:43:00,84.7,56.3,29.44,West,270,1.3,802.0,38,0.00,,BKN016,0.00,VWS V14.01,2013-06-12 21:43:00,
2013-06-12 14:48:00,85.6,57.9,29.41,West,270,1.3,802.0,39,0.00,,BKN016,0.00,VWS V14.01,2013-06-12 21:48:00,
2013-06-12 14:53:00,85.8,58.0,29.41,West,270,1.3,802.0,39,0.00,,BKN016,0.00,VWS V14.01,2013-06-12 21:53:00,
2013-06-12 14:58:00,85.5,57.0,29.41,West,270,1.3,802.0,38,0.00,,BKN016,0.00,VWS V14.01,2013-06-12 21:58:00,
2013-06-12 15:03:00,84.0,55.7,29.41,West,270,1.3,802.0,38,0.00,,BKN250,0.00,VWS V14.01,2013-06-12 22:03:00,
2013-06-12 15:08:00,84.6,56.9,29.41,West,270,1.3,802.0,39,0.00,,BKN250,0.00,VWS V14.01,2013-06-12 22:08:00,
2013-06-12 15:13:00,85.6,57.9,29.41,West,270,1.3,802.0,39,0.00,,BKN250,0.00,VWS V14.01,2013-06-12 22:13:00,
2013-06-12 15:18:00,84.6,56.9,29.41,West,270,1.3,802.0,39,0.00,,BKN250,0.00,VWS V14.01,2013-06-12 22:18:00,
2013-06-12 15:23:00,85.1,57.4,29.41,West,270,1.3,802.0,39,0.00,,BKN250,0.00,VWS V14.01,2013-06-12 22:23:00,
2013-06-12 15:28:00,84.9,57.2,29.41,West,270,1.3,802.0,39,0.00,,BKN250,0.00,VWS V14.01,2013-06-12 22:28:00,
2013-06-12 15:33:00,85.5,57.0,29.41,West,270,1.3,802.0,38,0.00,,BKN250,0.00,VWS V14.01,2013-06-12 22:33:00,
2013-06-12 15:38:00,84.4,55.3,29.41,West,270,1.3,802.0,37,0.00,,BKN250,0.00,VWS V14.01,2013-06-12 22:38:00,
2013-06-12 15:43:00,84.4,56.0,29.41,West,270,1.3,802.0,38,0.00,,BKN250,0.00,VWS V14.01,2013-06-12 22:43:00,
2013-06-12 15:48:00,84.0,56.4,29.41,West,270,1.3,802.0,39,0.00,,BKN250,0.00,VWS V14.01,2013-06-12 22:48:00,
2013-06-12 15:53:00,83.5,55.9,29.41,West,270,1.3,802.0,39,0.00,,BKN250,0.00,VWS V14.01,2013-06-12 22:53:00,
2013-06-12 15:58:00,83.8,56.3,29.41,West,270,1.3,802.0,39,0.00,,BKN250,0.00,VWS V14.01,2013-06-12 22:58:00,
2013-06-12 16:03:00,84.2,56.6,29.38,West,270,1.3,802.0,39,0.00,,BKN250,0.00,VWS V14.01,2013-06-12 23:03:00,
2013-06-12 16:08:00,83.8,56.3,29.38,West,270,1.3,802.0,39,0.00,,BKN250,0.00,VWS V14.01,2013-06-12 23:08:00,
2013-06-12 16:13:00,83.1,55.6,29.38,West,270,1.3,802.0,39,0.00,,BKN250,0.00,VWS V14.01,2013-06-12 23:13:00,
2013-06-12 16:18:00,83.5,55.9,29.38,West,270,1.3,802.0,39,0.00,,BKN250,0.00,VWS V14.01,2013-06-12 23:18:00,
2013-06-12 16:23:00,83.7,56.8,29.38,West,270,1.3,802.0,40,0.00,,BKN250,0.00,VWS V14.01,2013-06-12 23:23:00,
2013-06-12 16:28:00,83.8,57.0,29.38,West,270,1.3,802.0,40,0.00,,BKN250,0.00,VWS V14.01,2013-06-12 23:28:00,
2013-06-12 16:33:00,83.7,55.4,29.38,West,270,1.3,802.0,38,0.00,,BKN250,0.00,VWS V14.01,2013-06-12 23:33:00,
2013-06-12 16:38:00,83.1,55.6,29.38,West,270,1.3,802.0,39,0.00,,BKN250,0.00,VWS V14.01,2013-06-12 23:38:00,
2013-06-12 16:43:00,82.2,55.5,29.38,West,270,1.3,802.0,40,0.00,,BKN250,0.00,VWS V14.01,2013-06-12 23:43:00,
2013-06-12 16:48:00,82.4,55.0,29.38,West,270,1.3,802.0,39,0.00,,BKN250,0.00,VWS V14.01,2013-06-12 23:48:00,
2013-06-12 16:53:00,81.3,54.7,29.38,West,270,1.3,802.0,40,0.00,,BKN250,0.00,VWS V14.01,2013-06-12 23:53:00,
2013-06-12 16:58:00,80.6,54.1,29.38,West,270,1.3,802.0,40,0.00,,BKN250,0.00,VWS V14.01,2013-06-12 23:58:00,
2013-06-12 17:03:00,80.8,54.9,29.38,West,270,1.3,802.0,41,0.00,,SCT250,0.00,VWS V14.01,2013-06-13 00:03:00,
2013-06-12 17:08:00,81.0,55.1,29.38,West,270,1.3,802.0,41,0.00,,SCT250,0.00,VWS V14.01,2013-06-13 00:08:00,
2013-06-12 17:13:00,79.5,53.8,29.38,West,270,1.3,802.0,41,0.00,,SCT250,0.00,VWS V14.01,2013-06-13 00:13:00,
2013-06-12 17:18:00,79.7,54.6,29.38,West,270,1.3,802.0,42,0.00,,SCT250,0.00,VWS V14.01,2013-06-13 00:18:00,
2013-06-12 17:23:00,79.7,54.6,29.38,West,270,1.3,802.0,42,0.00,,SCT250,0.00,VWS V14.01,2013-06-13 00:23:00,
2013-06-12 17:28:00,79.2,54.1,29.38,West,270,1.3,802.0,42,0.00,,SCT250,0.00,VWS V14.01,2013-06-13 00:28:00,
2013-06-12 17:33:00,79.2,54.8,29.38,West,270,1.3,802.0,43,0.00,,SCT250,0.00,VWS V14.01,2013-06-13 00:33:00,
2013-06-12 17:38:00,78.3,54.0,29.38,West,270,1.3,802.0,43,0.00,,SCT250,0.00,VWS V14.01,2013-06-13 00:38:00,
2013-06-12 17:43:00,77.9,54.3,29.38,West,270,1.3,802.0,44,0.00,,SCT250,0.00,VWS V14.01,2013-06-13 00:43:00,
2013-06-12 17:48:00,76.5,53.6,29.38,West,270,1.3,802.0,45,0.00,,SCT250,0.00,VWS V14.01,2013-06-13 00:48:00,
2013-06-12 17:53:00,76.3,54.0,29.38,West,270,1.3,802.0,46,0.00,,SCT250,0.00,VWS V14.01,2013-06-13 00:53:00,
2013-06-12 17:58:00,75.6,53.3,29.35,West,270,1.3,802.0,46,0.00,,SCT250,0.00,VWS V14.01,2013-06-13 00:58:00,
2013-06-12 18:04:00,75.4,54.3,29.35,West,270,1.3,802.0,48,0.00,,BKN200,0.00,VWS V14.01,2013-06-13 01:04:00,
2013-06-12 18:09:00,74.7,54.2,29.35,West,270,1.3,802.0,49,0.00,,BKN200,0.00,VWS V14.01,2013-06-13 01:09:00,
2013-06-12 18:14:00,73.9,54.2,29.38,West,270,1.3,802.0,50,0.00,,BKN200,0.00,VWS V14.01,2013-06-13 01:14:00,
2013-06-12 18:19:00,73.0,53.9,29.38,West,270,1.3,802.0,51,0.00,,BKN200,0.00,VWS V14.01,2013-06-13 01:19:00,
2013-06-12 18:24:00,72.9,54.8,29.38,West,270,1.3,802.0,53,0.00,,BKN200,0.00,VWS V14.01,2013-06-13 01:24:00,
2013-06-12 18:29:00,72.5,54.4,29.38,West,270,1.3,802.0,53,0.00,,BKN200,0.00,VWS V14.01,2013-06-13 01:29:00,
2013-06-12 18:34:00,72.0,54.4,29.38,West,270,1.3,802.0,54,0.00,,BKN200,0.00,VWS V14.01,2013-06-13 01:34:00,
2013-06-12 18:39:00,71.2,54.8,29.38,West,270,1.3,802.0,56,0.00,,BKN200,0.00,VWS V14.01,2013-06-13 01:39:00,
2013-06-12 18:44:00,70.5,54.6,29.38,West,270,1.3,802.0,57,0.00,,BKN200,0.00,VWS V14.01,2013-06-13 01:44:00,
2013-06-12 18:49:00,70.2,55.2,29.38,West,270,1.3,802.0,59,0.00,,BKN200,0.00,VWS V14.01,2013-06-13 01:49:00,
2013-06-12 18:54:00,70.0,55.5,29.38,West,270,1.3,802.0,60,0.00,,BKN200,0.00,VWS V14.01,2013-06-13 01:54:00,
2013-06-12 18:59:00,69.4,55.4,29.35,West,270,1.3,802.0,61,0.00,,BKN200,0.00,VWS V14.01,2013-06-13 01:59:00,
2013-06-12 19:04:00,69.4,55.4,29.35,West,270,1.3,802.0,61,0.00,,BKN023,0.00,VWS V14.01,2013-06-13 02:04:00,
2013-06-12 19:09:00,69.1,55.5,29.35,West,270,1.3,802.0,62,0.00,,BKN023,0.00,VWS V14.01,2013-06-13 02:09:00,
2013-06-12 19:14:00,68.7,55.6,29.38,West,270,1.3,802.0,63,0.00,,BKN023,0.00,VWS V14.01,2013-06-13 02:14:00,
2013-06-12 19:19:00,68.2,55.1,29.38,West,270,1.3,802.0,63,0.00,,BKN023,0.00,VWS V14.01,2013-06-13 02:19:00,
2013-06-12 19:24:00,67.8,55.2,29.38,West,270,1.3,802.0,64,0.00,,BKN023,0.00,VWS V14.01,2013-06-13 02:24:00,
2013-06-12 19:29:00,67.6,55.5,29.38,West,270,1.3,802.0,65,0.00,,BKN023,0.00,VWS V14.01,2013-06-13 02:29:00,
2013-06-12 19:34:00,67.3,55.5,29.38,West,270,1.3,802.0,66,0.00,,BKN023,0.00,VWS V14.01,2013-06-13 02:34:00,
2013-06-12 19:39:00,67.3,56.0,29.38,West,270,1.3,802.0,67,0.00,,BKN023,0.00,VWS V14.01,2013-06-13 02:39:00,
2013-06-12 19:44:00,67.1,55.8,29.38,West,270,1.3,802.0,67,0.00,,BKN023,0.00,VWS V14.01,2013-06-13 02:44:00,
2013-06-12 19:49:00,66.7,55.8,29.38,West,270,1.3,802.0,68,0.00,,BKN023,0.00,VWS V14.01,2013-06-13 02:49:00,
2013-06-12 19:54:00,66.6,55.3,29.38,West,270,1.3,802.0,67,0.00,,BKN023,0.00,VWS V14.01,2013-06-13 02:54:00,
2013-06-12 19:59:00,66.4,55.5,29.41,West,270,1.3,802.0,68,0.00,,BKN023,0.00,VWS V14.01,2013-06-13 02:59:00,
2013-06-12 20:04:00,66.4,55.9,29.41,West,270,1.3,802.0,69,0.00,,OVC018,0.00,VWS V14.01,2013-06-13 03:04:00,
2013-06-12 20:09:00,66.4,55.9,29.41,West,270,1.3,802.0,69,0.00,,OVC018,0.00,VWS V14.01,2013-06-13 03:09:00,
2013-06-12 20:14:00,66.2,55.7,29.41,West,270,1.3,802.0,69,0.00,,OVC018,0.00,VWS V14.01,2013-06-13 03:14:00,
2013-06-12 20:19:00,66.2,55.7,29.41,West,270,1.3,802.0,69,0.00,,OVC018,0.00,VWS V14.01,2013-06-13 03:19:00,
2013-06-12 20:24:00,66.0,56.0,29.41,West,270,1.3,802.0,70,0.00,,OVC018,0.00,VWS V14.01,2013-06-13 03:24:00,
2013-06-12 20:29:00,66.0,56.4,29.38,West,270,1.3,802.0,71,0.00,,OVC018,0.00,VWS V14.01,2013-06-13 03:29:00,
2013-06-12 20:34:00,65.8,56.2,29.38,West,270,1.3,802.0,71,0.00,,OVC018,0.00,VWS V14.01,2013-06-13 03:34:00,
2013-06-12 20:39:00,65.7,56.4,29.38,West,270,1.3,802.0,72,0.00,,OVC018,0.00,VWS V14.01,2013-06-13 03:39:00,
2013-06-12 20:44:00,65.7,56.4,29.41,West,270,1.3,802.0,72,0.00,,OVC018,0.00,VWS V14.01,2013-06-13 03:44:00,
2013-06-12 20:49:00,65.7,56.4,29.41,West,270,1.3,802.0,72,0.00,,OVC018,0.00,VWS V14.01,2013-06-13 03:49:00,
2013-06-12 20:54:00,65.7,56.4,29.41,West,270,1.3,802.0,72,0.00,,OVC018,0.00,VWS V14.01,2013-06-13 03:54:00,
2013-06-12 20:59:00,65.5,56.2,29.41,West,270,1.3,802.0,72,0.00,,OVC018,0.00,VWS V14.01,2013-06-13 03:59:00,
2013-06-12 21:01:00,65.5,56.2,29.41,West,270,1.3,802.0,72,0.00,,OVC016,0.00,VWS V14.01,2013-06-13 04:01:00,
2013-06-12 21:06:00,65.5,56.6,29.41,West,270,1.3,802.0,73,0.00,,OVC016,0.00,VWS V14.01,2013-06-13 04:06:00,
2013-06-12 21:11:00,65.3,56.4,29.41,West,270,1.3,802.0,73,0.00,,OVC016,0.00,VWS V14.01,2013-06-13 04:11:00,
2013-06-12 21:16:00,65.5,56.6,29.41,West,270,1.3,802.0,73,0.00,,OVC016,0.00,VWS V14.01,2013-06-13 04:16:00,
2013-06-12 21:21:00,65.3,56.4,29.41,West,270,1.3,802.0,73,0.00,,OVC016,0.00,VWS V14.01,2013-06-13 04:21:00,
2013-06-12 21:26:00,65.3,56.4,29.41,West,270,1.3,802.0,73,0.00,,OVC016,0.00,VWS V14.01,2013-06-13 04:26:00,
2013-06-12 21:31:00,65.3,56.8,29.44,West,270,1.3,802.0,74,0.00,,OVC016,0.00,VWS V14.01,2013-06-13 04:31:00,
2013-06-12 21:36:00,65.3,56.8,29.44,West,270,1.3,802.0,74,0.00,,OVC016,0.00,VWS V14.01,2013-06-13 04:36:00,
2013-06-12 21:41:00,65.3,56.8,29.44,West,270,1.3,802.0,74,0.00,,OVC016,0.00,VWS V14.01,2013-06-13 04:41:00,
2013-06-12 21:46:00,65.1,56.6,29.44,West,270,1.3,802.0,74,0.00,,OVC016,0.00,VWS V14.01,2013-06-13 04:46:00,
2013-06-12 21:51:00,65.1,57.0,29.44,West,270,1.3,802.0,75,0.00,,OVC016,0.00,VWS V14.01,2013-06-13 04:51:00,
2013-06-12 21:56:00,64.9,56.8,29.44,West,270,1.3,802.0,75,0.00,,OVC016,0.00,VWS V14.01,2013-06-13 04:56:00,
2013-06-12 22:01:00,64.9,56.8,29.44,West,270,1.3,802.0,75,0.00,,OVC016,0.00,VWS V14.01,2013-06-13 05:01:00,
2013-06-12 22:06:00,64.8,56.7,29.44,West,270,1.3,802.0,75,0.00,,OVC016,0.00,VWS V14.01,2013-06-13 05:06:00,
2013-06-12 22:11:00,64.8,56.7,29.44,West,270,1.3,802.0,75,0.00,,OVC016,0.00,VWS V14.01,2013-06-13 05:11:00,
2013-06-12 22:16:00,64.8,56.7,29.44,West,270,1.3,802.0,75,0.00,,OVC016,0.00,VWS V14.01,2013-06-13 05:16:00,
2013-06-12 22:21:00,64.8,57.0,29.44,West,270,1.3,802.0,76,0.00,,OVC016,0.00,VWS V14.01,2013-06-13 05:21:00,
2013-06-12 22:26:00,64.8,57.0,29.44,West,270,1.3,802.0,76,0.00,,OVC016,0.00,VWS V14.01,2013-06-13 05:26:00,
2013-06-12 22:31:00,64.8,57.0,29.44,West,270,1.3,802.0,76,0.00,,OVC016,0.00,VWS V14.01,2013-06-13 05:31:00,
2013-06-12 22:36:00,64.8,57.0,29.44,West,270,1.3,802.0,76,0.00,,OVC016,0.00,VWS V14.01,2013-06-13 05:36:00,
2013-06-12 22:41:00,64.8,57.0,29.44,West,270,1.3,802.0,76,0.00,,OVC016,0.00,VWS V14.01,2013-06-13 05:41:00,
2013-06-12 22:46:00,64.8,57.0,29.44,West,270,1.3,802.0,76,0.00,,OVC016,0.00,VWS V14.01,2013-06-13 05:46:00,
2013-06-12 22:51:00,64.8,57.4,29.44,West,270,1.3,802.0,77,0.00,,OVC016,0.00,VWS V14.01,2013-06-13 05:51:00,
2013-06-12 22:56:00,64.8,57.0,29.44,West,270,1.3,802.0,76,0.00,,OVC016,0.00,VWS V14.01,2013-06-13 05:56:00,
2013-06-12 23:01:00,64.6,57.2,29.44,West,270,1.3,802.0,77,0.00,,OVC016,0.00,VWS V14.01,2013-06-13 06:01:00,
2013-06-12 23:06:00,64.8,57.4,29.44,West,270,1.3,802.0,77,0.00,,OVC016,0.00,VWS V14.01,2013-06-13 06:06:00,
2013-06-12 23:11:00,64.8,57.4,29.44,West,270,1.3,802.0,77,0.00,,OVC016,0.00,VWS V14.01,2013-06-13 06:11:00,
2013-06-12 23:16:00,64.6,57.2,29.44,West,270,1.3,802.0,77,0.00,,OVC016,0.00,VWS V14.01,2013-06-13 06:16:00,
2013-06-12 23:21:00,64.8,57.4,29.44,West,270,1.3,802.0,77,0.00,,OVC016,0.00,VWS V14.01,2013-06-13 06:21:00,
2013-06-12 23:26:00,64.6,57.2,29.44,West,270,1.3,802.0,77,0.00,,OVC016,0.00,VWS V14.01,2013-06-13 06:26:00,
2013-06-12 23:31:00,64.6,57.2,29.44,West,270,1.3,802.0,77,0.00,,OVC016,0.00,VWS V14.01,2013-06-13 06:31:00,
2013-06-12 23:36:00,64.6,57.2,29.44,West,270,1.3,802.0,77,0.00,,OVC016,0.00,VWS V14.01,2013-06-13 06:36:00,
2013-06-12 23:41:00,64.4,57.0,29.44,West,270,1.3,802.0,77,0.00,,OVC016,0.00,VWS V14.01,2013-06-13 06:41:00,
2013-06-12 23:46:00,64.4,57.0,29.41,West,270,1.3,802.0,77,0.00,,OVC016,0.00,VWS V14.01,2013-06-13 06:46:00,
2013-06-12 23:51:00,64.4,57.0,29.41,West,270,1.3,802.0,77,0.00,,OVC016,0.00,VWS V14.01,2013-06-13 06:51:00,
2013-06-12 23:57:00,64.4,57.4,29.41,West,270,1.3,802.0,78,0.00,,OVC016,0.00,VWS V14.01,2013-06-13 06:57:00,